TimeEDT,TemperatureF,Dew PointF,Humidity,Sea Level PressureIn,VisibilityMPH,Wind Direction,Wind SpeedMPH,Gust SpeedMPH,PrecipitationIn,Events,Conditions,WindDirDegrees,DateUTC
12:53 AM,75.9,71.1,85,30.06,10.0,SW,5.8,-,N/A,,Clear,220,2013-06-27 04:53:00
1:53 AM,75.0,71.1,87,30.04,10.0,South,5.8,-,N/A,,Clear,190,2013-06-27 05:53:00
2:53 AM,75.0,71.1,87,30.04,10.0,Calm,Calm,-,N/A,,Clear,0,2013-06-27 06:53:00
3:53 AM,75.0,71.1,87,30.04,10.0,Calm,Calm,-,N/A,,Clear,0,2013-06-27 07:53:00
4:53 AM,75.0,71.1,87,30.04,10.0,SSW,3.5,-,N/A,,Clear,210,2013-06-27 08:53:00
5:53 AM,75.0,71.1,87,30.04,10.0,SSW,4.6,-,N/A,,Clear,210,2013-06-27 09:53:00
6:53 AM,75.0,71.1,87,30.04,10.0,SSW,3.5,-,N/A,,Clear,210,2013-06-27 10:53:00
7:53 AM,77.0,72.0,84,30.05,10.0,SW,4.6,-,N/A,,Clear,220,2013-06-27 11:53:00
8:53 AM,80.1,72.0,76,30.06,10.0,SW,4.6,-,N/A,,Clear,230,2013-06-27 12:53:00
9:53 AM,82.9,73.0,72,30.05,10.0,SW,6.9,-,N/A,,Clear,220,2013-06-27 13:53:00
10:53 AM,84.9,75.0,72,30.05,10.0,West,3.5,-,N/A,,Partly Cloudy,260,2013-06-27 14:53:00
11:53 AM,87.1,75.9,69,30.05,10.0,SSE,5.8,-,N/A,,Scattered Clouds,150,2013-06-27 15:53:00
12:53 PM,88.0,75.9,67,30.03,10.0,ESE,5.8,-,N/A,,Partly Cloudy,120,2013-06-27 16:53:00
1:50 PM,80.6,71.6,74,30.04,1.5,NW,12.7,-,0.11,Rain,Rain,320,2013-06-27 17:50:00
1:53 PM,78.1,73.0,84,30.04,0.8,NW,13.8,-,0.24,Rain,Heavy Rain,320,2013-06-27 17:53:00
2:03 PM,78.8,73.4,83,30.04,3.0,NNW,8.1,-,0.06,Rain,Light Rain,330,2013-06-27 18:03:00
2:53 PM,82.0,73.0,74,30.03,10.0,Calm,Calm,-,0.06,,Clear,0,2013-06-27 18:53:00
3:53 PM,82.0,73.9,76,30.00,10.0,North,4.6,-,N/A,,Clear,360,2013-06-27 19:53:00
4:53 PM,84.0,73.9,72,29.98,10.0,Calm,Calm,-,N/A,,Clear,0,2013-06-27 20:53:00
5:53 PM,87.1,73.9,65,29.96,10.0,WNW,3.5,-,N/A,,Clear,290,2013-06-27 21:53:00
6:53 PM,87.1,75.0,67,29.96,10.0,Calm,Calm,-,N/A,,Clear,0,2013-06-27 22:53:00
7:53 PM,84.9,73.9,69,29.96,10.0,South,9.2,-,N/A,,Clear,190,2013-06-27 23:53:00
8:53 PM,82.9,73.9,74,29.96,10.0,West,4.6,-,N/A,,Clear,270,2013-06-28 00:53:00
9:53 PM,80.1,75.0,85,29.96,10.0,Calm,Calm,-,N/A,,Clear,0,2013-06-28 01:53:00
10:53 PM,81.0,77.0,88,29.98,3.0,WSW,3.5,-,N/A,,Clear,240,2013-06-28 02:53:00
11:26 PM,80.6,75.2,84,29.99,2.5,WSW,3.5,-,N/A,,Haze,240,2013-06-28 03:26:00
11:37 PM,80.6,75.2,84,29.98,4.0,WSW,4.6,-,N/A,,Haze,240,2013-06-28 03:37:00
11:49 PM,78.8,75.2,89,29.99,2.5,SSW,4.6,-,N/A,,Clear,200,2013-06-28 03:49:00
11:53 PM,79.0,75.0,88,29.99,2.5,South,3.5,-,N/A,,Clear,190,2013-06-28 03:53:00